Home   Weather   Merida   Past weeks

Flag for Mexico Past Weather in Merida, Yucatán, Mexico — Yesterday and Last 2 Weeks

Now
84 °F

Scattered clouds.


Feels Like: 91 °F
Forecast: 79 / 102 °F
Wind: 20 mph from Southeast

Location: Aerop. Internacional Merida - Yuc

Current Time: Apr 27, 2017 at 10:00:42 am

Latest Report: Apr 27, 2017 at 8:44 am


Visibility: 6 mi

Pressure: 29.76 "Hg

Humidity: 70%

Dew Point: 73 °F

Location of MeridaLocation

Past Weather in Merida — Graph

°F

Merida Temperature Yesterday

Maximum temperature yesterday: 104 °F (at 4:43 pm)
Minimum temperature yesterday: 75 °F (at 4:50 am)
Average temperature yesterday: 88 °F

High & Low Weather Summary for the Past Weeks

 TemperatureHumidityPressure
High104 °F (Apr 26, 4:43 pm)100% (Apr 19, 3:35 pm)30.08 "Hg (Apr 19, 3:35 pm)
Low66 °F (Apr 24, 5:52 am)17% (Apr 26, 4:43 pm)29.54 "Hg (Apr 26, 7:22 am)
Average80 °F66%29.92 "Hg
* Reported Apr 12 8:46 am — Apr 27 8:44 am, Merida, Weather by CustomWeather, © 2017

Note: Actual official high and low records may vary slightly from our data, if they occured in-between our weather recording intervals... More about our weather records

Advertising

Merida Weather History for the Previous 24 Hours

Scroll right to see more
 ConditionsComfort  
Time TempWeatherWind HumidityBarometerVisibility
8:44 am
Thu, Apr 27
84 °FScattered clouds.20 mph70%29.76 "Hg6 mi
7:49 am82 °FScattered clouds.22 mph74%29.74 "Hg5 mi
6:48 am81 °FScattered clouds.14 mph79%29.73 "Hg5 mi
5:48 am81 °FOvercast.12 mph79%29.72 "Hg5 mi
4:48 am81 °FOvercast.17 mph79%29.70 "Hg6 mi
3:48 am81 °FPassing clouds.16 mph79%29.69 "Hg6 mi
2:48 am81 °FPassing clouds.12 mph79%29.71 "Hg6 mi
1:48 am82 °FPassing clouds.14 mph79%29.72 "Hg6 mi
12:48 am82 °FPassing clouds.17 mph70%29.74 "Hg6 mi
11:48 pm
Wed, Apr 26
84 °FClear.25 mph70%29.74 "Hg6 mi
10:48 pm86 °FClear.17 mph62%29.72 "Hg6 mi
9:48 pm90 °FClear.23 mph55%29.73 "Hg7 mi
8:44 pm93 °FPassing clouds.17 mph47%29.66 "Hg6 mi
7:49 pm93 °FPassing clouds.7 mph30%29.63 "Hg6 mi
6:43 pm100 °FPartly sunny.12 mph21%29.63 "Hg7 mi
5:43 pm104 °FPartly sunny.9 mph17%29.59 "Hg7 mi
4:43 pm104 °FPartly sunny.12 mph17%29.59 "Hg7 mi
3:42 pm102 °FBroken clouds.14 mph20%29.63 "Hg7 mi
2:45 pm102 °FMostly cloudy.15 mph20%29.62 "Hg7 mi
1:43 pm102 °FPartly sunny.22 mph24%29.64 "Hg7 mi
12:47 pm99 °FPartly sunny.17 mph27%29.70 "Hg7 mi
11:50 am95 °FPartly sunny.20 mph34%29.70 "Hg7 mi
10:45 am91 °FBroken clouds.15 mph44%29.73 "Hg7 mi
Weather by CustomWeather, © 2017

See weather overviewHow to use our weather pages